Location: Unspecified
(0.0000°N, 0.0000°E)
Time: 05:52:51
(UTC+00:00)

Vanguard 3 - Pass Details

Date: 13 December 2017
Orbit: 508 x 3264 km, 33.3° (Epoch: 18 July)

Event Time Altitude Azimuth Distance (km) Brightness Sun altitude
Rises 23:43:09 0° 259° (WSW) 5,584 11.5 -66.6°
Reaches altitude 10° 23:47:37 10° 245° (WSW) 5,000 11.2 -66.7°
Maximum altitude 23:59:12 24° 197° (SSW) 4,690 11.0 -66.8°
Drops below altitude 10° 00:13:38 10° 149° (SSE) 6,206 11.8 -66.3°
Sets 00:20:19 0° 137° (SE) 7,177 12.3 -66.0°
